Regional Weather Roundup
Issued by NWS

Home | Current Version | Previous Version | Graphics & Text | Print | Product List | Glossary Off
Versions: 1 2 3 4 5 6 7 8 9 10 11 12 13 14 15 16 17 18 19 20 21 22 23 24 25 26 27 28 29 30 31 32 33 34 35 36 37 38 39 40 41 42 43 44 45 46 47 48 49 50

806
ASUS43 KMKX 272200
RWRWI

WISCONSIN REGIONAL WEATHER ROUNDUP
NATIONAL WEATHER SERVICE MILWAUKEE/SULLIVAN WI
500 PM CDT SAT MAY 27 2017

NOTE: "FAIR" INDICATES FEW OR NO CLOUDS BELOW 12,000 FEET WITH NO
SIGNIFICANT WEATHER AND/OR OBSTRUCTIONS TO VISIBILITY.

WIZ001-002-006>008-014>016-023>028-272300-
NORTHWEST WISCONSIN

CITY           SKY/WX    TMP DP  RH WIND       PRES   REMARKS
SUPERIOR ARPT  NOT AVBL
ASHLAND        PTSUNNY   73  44  35 VRB5      29.82F
HAYWARD        CLOUDY    70  42  36 CALM      29.84F
SIREN          CLOUDY    70  42  36 CALM      29.85F
CUMBERLAND     CLOUDY    68  39  34 NW7       29.86F
RICE LAKE      CLOUDY    70  43  37 W8        29.87F
CHETEK         CLOUDY    70  46  42 W7        29.85F
LADYSMITH      CLOUDY    69  47  46 W6        29.87F
EAU CLAIRE     NOT AVBL
MENOMONIE      PTSUNNY   68  47  47 SW7       29.87S
NEW RICHMOND   PTSUNNY   67  51  56 SW10      29.87F
OSCEOLA        CLOUDY    72  44  36 W6        29.88F
$$

WIZ003>005-009-010-017-018-272300-
NORTH CENTRAL WISCONSIN

CITY           SKY/WX    TMP DP  RH WIND       PRES   REMARKS
MANITOWISH WTR CLOUDY    68  45  44 W9        29.86S
ARBOR VITAE    CLOUDY    69  46  42 W9        29.86S
WOODRUFF       CLOUDY    69  46  42 W9        29.86S
RHINELANDER    PTSUNNY   71  46  40 W9        29.84F
EAGLE RIVER    PTSUNNY   72  41  32 W15       29.84F
LAND O LAKES   PTSUNNY   73  42  32 W9G16     29.86S
PHILLIPS       CLOUDY    66  47  50 NW3       29.86F
TOMAHAWK       CLOUDY    68  46  45 W9        29.85F
MEDFORD        CLOUDY    66  48  51 NW3       29.85F
MERRILL        CLOUDY    69  51  51 W12G18    29.86F
$$

WIZ029-030-035-036-043>047-272300-
CENTRAL WISCONSIN

CITY           SKY/WX    TMP DP  RH WIND       PRES   REMARKS
WAUSAU         CLOUDY    71  49  45 W15G21    29.83F
MOSINEE        PTSUNNY   70  52  52 NW12G18   29.85F
MARSHFIELD     MOSUNNY   69  51  52 N12       29.84F
STEVENS POINT  CLOUDY    72  49  44 W8        29.84F
WAUPACA        CLOUDY    78  49  35 NW7       29.82F
WAUTOMA        MOSUNNY   76  52  43 NW8       29.82
WISC RAPIDS    CLOUDY    76  51  41 NW7       29.84F
CAMP DOUGLAS   NOT AVBL
$$

WIZ011>013-019>022-031-037>040-048>050-272300-
NORTHEAST WISCONSIN

CITY           SKY/WX    TMP DP  RH WIND       PRES   REMARKS
ANTIGO         CLOUDY    70  49  47 W10       29.86F
SHAWANO        PTSUNNY   78  49  35 W8        29.83F
OCONTO         CLOUDY    75  57  52 S8        29.82F
STURGEON BAY   CLOUDY    69  52  54 S10       29.84F
GREEN BAY      MOSUNNY   75  59  57 S8        29.82F
MANITOWOC      NOT AVBL
APPLETON       PTSUNNY   73  54  49 SW9       29.82F
CLINTONVILLE   PTSUNNY   75  46  35 W7        29.83F
OSHKOSH        CLOUDY    74  56  53 VRB5      29.82F
$$

WIZ032>034-041-042-053>061-272300-
SOUTHWEST WISCONSIN

CITY           SKY/WX    TMP DP  RH WIND       PRES   REMARKS
LA CROSSE      CLOUDY    72  51  47 NW9       29.84F
SPARTA         MOSUNNY   73  50  43 N8        29.84F
VIROQUA        CLOUDY    72  51  47 SW7       29.84F
BOSCOBEL       MOSUNNY   76  57  51 CALM      29.85R
PRAIRIE DU CHI CLOUDY    73  58  59 SW5       29.85R
PLATTEVILLE    CLOUDY    73  63  71 CALM      29.85S
$$

WIZ056-057-062-063-064-067-068-272300-
SOUTH CENTRAL WISCONSIN

CITY           SKY/WX    TMP DP  RH WIND       PRES   REMARKS
REEDSBURG      CLOUDY    72  59  63 W3        29.83F
BARABOO/DELLS  PTSUNNY   73  56  57 CALM      29.84F
LONE ROCK      NOT AVBL
MINERAL POINT  SUNNY     73  55  53 CALM      29.87R
MADISON        CLOUDY    74  60  61 N6        29.83F
MIDDLETON      CLOUDY    75  60  59 W5        29.84F
WATERTOWN      CLOUDY    73  60  63 CALM      29.84F
MONROE         MOSUNNY   73  57  56 CALM      29.86S
JANESVILLE     PTSUNNY   77  59  53 CALM      29.84F
$$

WIZ051-052-058>065-066-070>072-272300-
SOUTHEAST WISCONSIN

CITY           SKY/WX    TMP DP  RH WIND       PRES   REMARKS
MILWAUKEE      PTSUNNY   67  53  61 SE13      29.86F
WAUKESHA       PTSUNNY   72  57  60 SW5       29.86F
MILWAUKEE/TIMM MOSUNNY   72  50  46 SE8       29.86F
RACINE         MOSUNNY   66  49  54 SE9       29.89R
KENOSHA        SUNNY     69  55  60 SE9       29.87S
FOND DU LAC    CLOUDY    75  56  51 W8        29.83F
SHEBOYGAN      MOSUNNY   69  55  60 S13       29.85F
WEST BEND      CLOUDY    73  55  53 CALM      29.85F
JUNEAU         CLOUDY    73  58  59 CALM      29.85F
$$

LSZ147-162-272300-
LAKE SUPERIOR

STATION/POSITION TIME  TEMP    WIND        PRES    WAVE
                       AIR SEA DIR/SP/G            HT/PER
                 (UTC) (F)     (DEG/KT/KT) (MB)    (FT/S)
W MID LAKE BUOY  2050   46 38  230/  8/ 10 1010.2F   0
DEVILS ISLAND    2100   66     220/ 13/ 16 1009.7F
SAXON HARBOR     2130   68      70/  3/  5 1010.2F
$$

LMZ867-665-643>646-272300-
LAKE MICHIGAN

STATION/POSITION TIME  TEMP    WIND        PRES    WAVE
                       AIR SEA DIR/SP/G            HT/PER
                 (UTC) (F)     (DEG/KT/KT) (MB)    (FT/S)
CHAMBERS ISLAND  2140   69     150/  5/ 10 1010.2F
N MID LAKE BUOY  2050   49 43  180/  8/ 10 1012.2F   0
NORTHPORT PIER   2140   67     150/  8/ 12 1010.8S
KEWAUNEE LAKESHO 2130   55     170/ 12/ 13 1011.0F
SHEBOYGAN LAKESH 2100   56     180/ 15/ 15 1011.4F
PORT WASHINGTON  2140   61     190/  2/  4 1012.2F
ATWATER BUOY     2009   54     170/  6/  8 1012.4F
MILWAUKEE LAKESH 2130   56     150/  2/  3   N/A
S MID LAKE BUOY  2050   53 52  360/  4/  4 1012.7F   0
KENOSHA   LAKESH 2100   60     120/  5/  8 1011.5
$$

TC  - TEMPERATURE IN CELSIUS
VSB - VISIBILITY IN STATUTE MILES
WCI - WIND CHILL INDEX
HX  - HEAT INDEX





USA.gov is the U.S. government's official web portal to all federal, state and local government web resources and services.